Flag for U.S.A. Weather past 2 weeks in Pierre, South Dakota, U.S.A.

Now
88 °F

Sunny.


Feels Like: 85 °F
Forecast: 64 / 84 °F
Wind: 12 mph from North

Location: Pierre Regional Airport

Current Time: Jul 25, 2014 at 6:53:10 PM

Latest Report: Jul 25, 2014 at 5:53 PM


Visibility: 10 mi

Pressure: 29.75 "Hg

Humidity: 23%

Dew point: 46 °F

Location of PierreLocation

Historic Weather in Pierre — Graph

°F

Pierre temperature yesterday

Maximum temperature yesterday: 98 °F (at 3:53 PM)
Minimum temperature yesterday: 68 °F (at 1:53 AM)
Average temperature yesterday: 81 °F

Past Weeks' High & Low Weather Summary

 TemperatureHumidityPressure
High103 °F (Jul 21, 3:53 PM)100% (Jul 11, 4:53 AM)30.26 "Hg (Jul 11, 4:53 AM)
Low48 °F (Jul 15, 5:53 AM)23% (Jul 25, 3:53 PM)29.53 "Hg (Jul 24, 8:53 PM)
Average73 °F65%29.91 "Hg
* Reported Jul 10 5:53 PM — Jul 25 5:53 PM, Pierre, Weather by CustomWeather, © 2014

Note: Actual official high and low records may vary slightly from our data, if they occured in-between our weather recording intervals... More about our weather records

Advertising

Pierre weather history for previous 24 hours

 ConditionsComfort  
Time TempWeatherWind HumidityBarometerVisibility
5:53 PM
Jul 25
88 °FSunny.12 mph23%29.75 "Hg10 mi
4:53 PM87 °FSunny.14 mph24%29.75 "Hg10 mi
3:53 PM88 °FSunny.12 mph23%29.76 "Hg10 mi
2:53 PM87 °FSunny.14 mph25%29.77 "Hg10 mi
1:53 PM85 °FSunny.14 mph30%29.79 "Hg10 mi
12:53 PM84 °FSunny.17 mph45%29.79 "Hg10 mi
11:53 AM80 °FScattered clouds.17 mph62%29.79 "Hg10 mi
11:03 AM77 °FPartly sunny.22 mph71%29.84 "Hg10 mi
10:53 AM78 °FScattered clouds.25 mph69%29.78 "Hg10 mi
9:53 AM77 °FSunny.20 mph71%29.77 "Hg10 mi
8:53 AM74 °FSunny.17 mph76%29.76 "Hg10 mi
7:53 AM71 °FScattered clouds.18 mph84%29.75 "Hg10 mi
6:53 AM69 °FClear.14 mph90%29.70 "Hg10 mi
5:53 AM70 °FClear.13 mph87%29.68 "Hg10 mi
4:53 AM69 °FClear.17 mph90%29.64 "Hg10 mi
3:53 AM71 °FClear.7 mph84%29.58 "Hg10 mi
2:53 AM70 °FClear.10 mph87%29.59 "Hg10 mi
1:53 AM72 °FClear.8 mph84%29.61 "Hg10 mi
12:53 AM75 °FClear.15 mph76%29.61 "Hg10 mi
11:53 PM
Jul 24
82 °FClear.17 mph46%29.61 "Hg10 mi
10:53 PM82 °FClear.14 mph67%29.55 "Hg10 mi
9:53 PM85 °FSunny.16 mph61%29.55 "Hg10 mi
8:53 PM86 °FSunny.20 mph59%29.53 "Hg10 mi
7:53 PM89 °FSunny.20 mph53%29.54 "Hg10 mi
6:53 PM91 °FSunny.25 mph50%29.56 "Hg10 mi
Weather by CustomWeather, © 2014

See weather overviewHow to use our weather pages